owner,sensor,date,latitude,longitude,vertical_datum,wind_speed,wind_to_direction,wind_speed_of_gust,qcFlag 
LUMCON,ioos:station:LUMCON:102:1,2019-11-11T15:00:00Z,29.1870,-90.6093,0.0,5.1,108.0,5.2,'11111222,11111222,11111222' 
LUMCON,ioos:station:LUMCON:102:1,2019-11-11T15:15:00Z,29.1870,-90.6093,0.0,5.0,110.0,5.3,'11111222,11111222,11111222' 
LUMCON,ioos:station:LUMCON:102:1,2019-11-11T15:30:00Z,29.1870,-90.6093,0.0,5.3,119.0,5.4,'11111222,11111222,11111222' 
LUMCON,ioos:station:LUMCON:102:1,2019-11-11T15:45:00Z,29.1870,-90.6093,0.0,5.6,115.0,6.0,'11111222,11111222,11111222' 
LUMCON,ioos:station:LUMCON:102:1,2019-11-11T16:00:00Z,29.1870,-90.6093,0.0,5.2,114.0,5.8,'11111222,11111222,11111222' 
LUMCON,ioos:station:LUMCON:102:1,2019-11-11T16:15:00Z,29.1870,-90.6093,0.0,5.1,115.0,5.4,'11111222,11111222,11111222' 
LUMCON,ioos:station:LUMCON:102:1,2019-11-11T16:30:00Z,29.1870,-90.6093,0.0,5.6,121.0,5.7,'11111222,11111222,11111222' 
LUMCON,ioos:station:LUMCON:102:1,2019-11-11T16:45:00Z,29.1870,-90.6093,0.0,5.2,119.0,5.4,'11111222,11111222,11111222' 
LUMCON,ioos:station:LUMCON:102:1,2019-11-11T17:00:00Z,29.1870,-90.6093,0.0,4.0,115.0,4.3,'11111222,11111222,11111222' 
LUMCON,ioos:station:LUMCON:102:1,2019-11-11T17:15:00Z,29.1870,-90.6093,0.0,4.6,118.0,4.8,'11111222,11111222,11111222' 
LUMCON,ioos:station:LUMCON:102:1,2019-11-11T17:30:00Z,29.1870,-90.6093,0.0,4.1,126.0,4.3,'11111222,11111222,11111222' 
LUMCON,ioos:station:LUMCON:102:1,2019-11-11T17:45:00Z,29.1870,-90.6093,0.0,4.0,121.0,4.5,'11111222,11111222,11111222' 
LUMCON,ioos:station:LUMCON:102:1,2019-11-11T18:00:00Z,29.1870,-90.6093,0.0,3.8,120.0,3.9,'11111222,11111222,11111222' 
LUMCON,ioos:station:LUMCON:102:1,2019-11-11T18:15:00Z,29.1870,-90.6093,0.0,3.4,124.0,3.5,'11111222,11111222,11111222' 
LUMCON,ioos:station:LUMCON:102:1,2019-11-11T18:30:00Z,29.1870,-90.6093,0.0,3.8,121.0,4.0,'11111222,11111222,11111222' 
LUMCON,ioos:station:LUMCON:102:1,2019-11-11T18:45:00Z,29.1870,-90.6093,0.0,3.5,116.0,3.6,'11111222,11111222,11111222' 
LUMCON,ioos:station:LUMCON:102:1,2019-11-11T19:00:00Z,29.1870,-90.6093,0.0,3.4,120.0,3.5,'11111222,11111222,11111222' 
LUMCON,ioos:station:LUMCON:102:1,2019-11-11T19:15:00Z,29.1870,-90.6093,0.0,2.9,118.0,3.0,'11111222,11111222,11111222' 
LUMCON,ioos:station:LUMCON:102:1,2019-11-11T19:30:00Z,29.1870,-90.6093,0.0,3.0,137.0,3.2,'11111222,11111222,11111222' 
LUMCON,ioos:station:LUMCON:102:1,2019-11-11T19:45:00Z,29.1870,-90.6093,0.0,3.0,140.0,3.1,'11111222,11111222,11111222' 
LUMCON,ioos:station:LUMCON:102:1,2019-11-11T20:00:00Z,29.1870,-90.6093,0.0,3.3,143.0,3.6,'11111222,11111222,11111222' 
LUMCON,ioos:station:LUMCON:102:1,2019-11-11T20:15:00Z,29.1870,-90.6093,0.0,3.5,134.0,3.6,'11111222,11111222,11111222' 
LUMCON,ioos:station:LUMCON:102:1,2019-11-11T20:30:00Z,29.1870,-90.6093,0.0,3.8,138.0,4.1,'11111222,11111222,11111222' 
LUMCON,ioos:station:LUMCON:102:1,2019-11-11T20:45:00Z,29.1870,-90.6093,0.0,3.5,133.0,3.8,'11111222,11111222,11111222' 
LUMCON,ioos:station:LUMCON:102:1,2019-11-11T21:00:00Z,29.1870,-90.6093,0.0,4.0,133.0,4.1,'11111222,11111222,11111222' 
LUMCON,ioos:station:LUMCON:102:1,2019-11-11T21:15:00Z,29.1870,-90.6093,0.0,2.9,132.0,3.2,'11111222,11111222,11111222' 
LUMCON,ioos:station:LUMCON:102:1,2019-11-11T21:30:00Z,29.1870,-90.6093,0.0,2.7,139.0,2.8,'11111222,11111222,11111222' 
LUMCON,ioos:station:LUMCON:102:1,2019-11-11T21:45:00Z,29.1870,-90.6093,0.0,3.0,143.0,3.0,'11111222,11111222,11111222' 
LUMCON,ioos:station:LUMCON:102:1,2019-11-11T22:00:00Z,29.1870,-90.6093,0.0,2.9,140.0,3.0,'11111222,11111222,11111222' 
LUMCON,ioos:station:LUMCON:102:1,2019-11-11T22:15:00Z,29.1870,-90.6093,0.0,3.3,147.0,3.3,'11111222,11111222,11111222' 
LUMCON,ioos:station:LUMCON:102:1,2019-11-11T22:30:00Z,29.1870,-90.6093,0.0,3.7,154.0,3.7,'11111222,11111222,11111222' 
LUMCON,ioos:station:LUMCON:102:1,2019-11-11T22:45:00Z,29.1870,-90.6093,0.0,2.6,152.0,2.7,'11111222,11111222,11111222' 
LUMCON,ioos:station:LUMCON:102:1,2019-11-11T23:00:00Z,29.1870,-90.6093,0.0,3.7,154.0,3.9,'11111222,11111222,11111222' 
LUMCON,ioos:station:LUMCON:102:1,2019-11-11T23:15:00Z,29.1870,-90.6093,0.0,3.0,142.0,3.1,'11111222,11111222,11111222' 
LUMCON,ioos:station:LUMCON:102:1,2019-11-11T23:30:00Z,29.1870,-90.6093,0.0,2.1,145.0,2.2,'11111222,11111222,11111222' 
LUMCON,ioos:station:LUMCON:102:1,2019-11-11T23:45:00Z,29.1870,-90.6093,0.0,1.9,147.0,2.1,'11111222,11111222,11111222' 
LUMCON,ioos:station:LUMCON:102:1,2019-11-12T00:00:00Z,29.1870,-90.6093,0.0,2.3,146.0,2.3,'11111222,11111222,11111222' 
LUMCON,ioos:station:LUMCON:102:1,2019-11-12T00:15:00Z,29.1870,-90.6093,0.0,1.9,152.0,2.0,'11111222,11111222,11111222' 
LUMCON,ioos:station:LUMCON:102:1,2019-11-12T00:30:00Z,29.1870,-90.6093,0.0,2.1,151.0,2.1,'11111222,11111222,11111222' 
LUMCON,ioos:station:LUMCON:102:1,2019-11-12T00:45:00Z,29.1870,-90.6093,0.0,2.5,157.0,2.6,'11111222,11111222,11111222' 
LUMCON,ioos:station:LUMCON:102:1,2019-11-12T01:00:00Z,29.1870,-90.6093,0.0,2.3,154.0,2.3,'11111222,11111222,11111222' 
LUMCON,ioos:station:LUMCON:102:1,2019-11-12T01:15:00Z,29.1870,-90.6093,0.0,2.3,181.0,2.4,'11111222,11111222,11111222' 
LUMCON,ioos:station:LUMCON:102:1,2019-11-12T01:30:00Z,29.1870,-90.6093,0.0,2.5,225.0,2.5,'11111222,11111222,11111222' 
LUMCON,ioos:station:LUMCON:102:1,2019-11-12T01:45:00Z,29.1870,-90.6093,0.0,3.3,220.0,3.5,'11111222,11111222,11111222' 
LUMCON,ioos:station:LUMCON:102:1,2019-11-12T02:00:00Z,29.1870,-90.6093,0.0,3.7,205.0,3.9,'11111222,11111222,11111222' 
LUMCON,ioos:station:LUMCON:102:1,2019-11-12T02:15:00Z,29.1870,-90.6093,0.0,2.3,258.0,2.4,'11111222,11111222,11111222' 
LUMCON,ioos:station:LUMCON:102:1,2019-11-12T02:30:00Z,29.1870,-90.6093,0.0,4.0,256.0,4.2,'11111222,11111222,11111222' 
LUMCON,ioos:station:LUMCON:102:1,2019-11-12T02:45:00Z,29.1870,-90.6093,0.0,2.8,299.0,2.9,'11111222,11111222,11111222' 
LUMCON,ioos:station:LUMCON:102:1,2019-11-12T03:00:00Z,29.1870,-90.6093,0.0,2.4,303.0,2.5,'11111222,11111222,11111222' 
LUMCON,ioos:station:LUMCON:102:1,2019-11-12T03:15:00Z,29.1870,-90.6093,0.0,2.7,314.0,2.7,'11111222,11111222,11111222' 
LUMCON,ioos:station:LUMCON:102:1,2019-11-12T03:30:00Z,29.1870,-90.6093,0.0,1.8,317.0,1.9,'11111222,11111222,11111222' 
LUMCON,ioos:station:LUMCON:102:1,2019-11-12T03:45:00Z,29.1870,-90.6093,0.0,1.7,290.0,1.8,'11111222,11111222,11111222' 
LUMCON,ioos:station:LUMCON:102:1,2019-11-12T04:00:00Z,29.1870,-90.6093,0.0,1.2,220.0,1.4,'11111222,11111222,11111222' 
LUMCON,ioos:station:LUMCON:102:1,2019-11-12T04:15:00Z,29.1870,-90.6093,0.0,2.4,187.0,2.4,'11111222,11111222,11111222' 
LUMCON,ioos:station:LUMCON:102:1,2019-11-12T04:30:00Z,29.1870,-90.6093,0.0,1.7,205.0,1.8,'11111222,11111222,11111222' 
LUMCON,ioos:station:LUMCON:102:1,2019-11-12T04:45:00Z,29.1870,-90.6093,0.0,1.1,212.0,1.2,'11111222,11111222,11111222' 
LUMCON,ioos:station:LUMCON:102:1,2019-11-12T05:00:00Z,29.1870,-90.6093,0.0,1.6,241.0,1.6,'11111222,11111222,11111222' 
LUMCON,ioos:station:LUMCON:102:1,2019-11-12T05:15:00Z,29.1870,-90.6093,0.0,1.6,227.0,1.6,'11111222,11111222,11111222' 
LUMCON,ioos:station:LUMCON:102:1,2019-11-12T05:30:00Z,29.1870,-90.6093,0.0,2.0,241.0,2.0,'11111222,11111222,11111222' 
LUMCON,ioos:station:LUMCON:102:1,2019-11-12T05:45:00Z,29.1870,-90.6093,0.0,2.5,234.0,2.5,'11111222,11111222,11111222' 
LUMCON,ioos:station:LUMCON:102:1,2019-11-12T06:00:00Z,29.1870,-90.6093,0.0,2.3,247.0,2.3,'11111222,11111222,11111222' 
LUMCON,ioos:station:LUMCON:102:1,2019-11-12T06:15:00Z,29.1870,-90.6093,0.0,2.6,242.0,2.6,'11111222,11111222,11111222' 
LUMCON,ioos:station:LUMCON:102:1,2019-11-12T06:30:00Z,29.1870,-90.6093,0.0,2.9,265.0,3.0,'11111222,11111222,11111222' 
LUMCON,ioos:station:LUMCON:102:1,2019-11-12T06:45:00Z,29.1870,-90.6093,0.0,3.6,302.0,3.7,'11111222,11111222,11111222' 
LUMCON,ioos:station:LUMCON:102:1,2019-11-12T07:00:00Z,29.1870,-90.6093,0.0,3.7,296.0,3.8,'11111222,11111222,11111222' 
LUMCON,ioos:station:LUMCON:102:1,2019-11-12T07:15:00Z,29.1870,-90.6093,0.0,3.6,300.0,3.8,'11111222,11111222,11111222' 
LUMCON,ioos:station:LUMCON:102:1,2019-11-12T07:30:00Z,29.1870,-90.6093,0.0,4.0,313.0,4.3,'11111222,11111222,11111222' 
LUMCON,ioos:station:LUMCON:102:1,2019-11-12T07:45:00Z,29.1870,-90.6093,0.0,4.9,328.0,5.0,'11111222,11111222,11111222' 
LUMCON,ioos:station:LUMCON:102:1,2019-11-12T08:00:00Z,29.1870,-90.6093,0.0,7.7,335.0,8.0,'11111222,11111222,11111222' 
LUMCON,ioos:station:LUMCON:102:1,2019-11-12T08:15:00Z,29.1870,-90.6093,0.0,13.8,7.0,14.5,'11111222,11111222,11111222' 
LUMCON,ioos:station:LUMCON:102:1,2019-11-12T08:30:00Z,29.1870,-90.6093,0.0,14.5,4.0,15.7,'11111222,11111222,11111222' 
LUMCON,ioos:station:LUMCON:102:1,2019-11-12T08:45:00Z,29.1870,-90.6093,0.0,13.6,3.0,14.1,'11111222,11111222,11111222' 
LUMCON,ioos:station:LUMCON:102:1,2019-11-12T09:00:00Z,29.1870,-90.6093,0.0,15.3,11.0,15.9,'11111222,11111222,11111222' 
LUMCON,ioos:station:LUMCON:102:1,2019-11-12T09:15:00Z,29.1870,-90.6093,0.0,13.4,8.0,14.0,'11111222,11111222,11111222' 
LUMCON,ioos:station:LUMCON:102:1,2019-11-12T09:30:00Z,29.1870,-90.6093,0.0,14.3,10.0,14.7,'11111222,11111222,11111222' 
LUMCON,ioos:station:LUMCON:102:1,2019-11-12T09:45:00Z,29.1870,-90.6093,0.0,14.7,17.0,15.4,'11111222,11111222,11111222' 
LUMCON,ioos:station:LUMCON:102:1,2019-11-12T10:00:00Z,29.1870,-90.6093,0.0,13.0,14.0,13.7,'11111222,11111222,11111222' 
LUMCON,ioos:station:LUMCON:102:1,2019-11-12T10:15:00Z,29.1870,-90.6093,0.0,13.0,36.0,13.5,'11111222,11111222,11111222' 
LUMCON,ioos:station:LUMCON:102:1,2019-11-12T10:30:00Z,29.1870,-90.6093,0.0,15.2,15.0,15.7,'11111222,11111222,11111222' 
LUMCON,ioos:station:LUMCON:102:1,2019-11-12T10:45:00Z,29.1870,-90.6093,0.0,16.1,24.0,16.8,'11111222,11111222,11111222' 
LUMCON,ioos:station:LUMCON:102:1,2019-11-12T11:00:00Z,29.1870,-90.6093,0.0,15.2,14.0,15.7,'11111222,11111222,11111222' 
LUMCON,ioos:station:LUMCON:102:1,2019-11-12T11:15:00Z,29.1870,-90.6093,0.0,14.8,9.0,15.1,'11111222,11111222,11111222' 
LUMCON,ioos:station:LUMCON:102:1,2019-11-12T11:30:00Z,29.1870,-90.6093,0.0,13.6,19.0,15.2,'11111222,11111222,11111222' 
LUMCON,ioos:station:LUMCON:102:1,2019-11-12T11:45:00Z,29.1870,-90.6093,0.0,16.8,7.0,18.2,'11111222,11111222,11111222' 
LUMCON,ioos:station:LUMCON:102:1,2019-11-12T12:00:00Z,29.1870,-90.6093,0.0,15.9,10.0,16.4,'11111222,11111222,11111222' 
LUMCON,ioos:station:LUMCON:102:1,2019-11-12T12:15:00Z,29.1870,-90.6093,0.0,13.8,31.0,14.9,'11111222,11111222,11111222' 
LUMCON,ioos:station:LUMCON:102:1,2019-11-12T12:30:00Z,29.1870,-90.6093,0.0,14.6,15.0,14.8,'11111222,11111222,11111222' 
LUMCON,ioos:station:LUMCON:102:1,2019-11-12T12:45:00Z,29.1870,-90.6093,0.0,16.4,23.0,16.7,'11111222,11111222,11111222' 
LUMCON,ioos:station:LUMCON:102:1,2019-11-12T13:00:00Z,29.1870,-90.6093,0.0,14.9,6.0,15.3,'11111222,11111222,11111222' 
LUMCON,ioos:station:LUMCON:102:1,2019-11-12T13:15:00Z,29.1870,-90.6093,0.0,16.3,24.0,17.1,'11111222,11111222,11111222' 
LUMCON,ioos:station:LUMCON:102:1,2019-11-12T13:30:00Z,29.1870,-90.6093,0.0,15.5,30.0,16.1,'11111222,11111222,11111222' 
LUMCON,ioos:station:LUMCON:102:1,2019-11-12T13:45:00Z,29.1870,-90.6093,0.0,16.5,37.0,16.8,'11111222,11111222,11111222' 
LUMCON,ioos:station:LUMCON:102:1,2019-11-12T14:00:00Z,29.1870,-90.6093,0.0,15.1,24.0,16.5,'11111222,11111222,11111222' 
LUMCON,ioos:station:LUMCON:102:1,2019-11-12T14:15:00Z,29.1870,-90.6093,0.0,15.3,36.0,16.7,'11111222,11111222,11111222' 
LUMCON,ioos:station:LUMCON:102:1,2019-11-12T14:30:00Z,29.1870,-90.6093,0.0,14.8,37.0,15.6,'11111222,11111222,11111222' 
LUMCON,ioos:station:LUMCON:102:1,2019-11-12T14:45:00Z,29.1870,-90.6093,0.0,17.1,28.0,18.0,'11111222,11111222,11111222' 
LUMCON,ioos:station:LUMCON:102:1,2019-11-12T15:00:00Z,29.1870,-90.6093,0.0,11.6,31.0,12.2,'11111222,11111222,11111222' 
LUMCON,ioos:station:LUMCON:102:1,2019-11-12T15:15:00Z,29.1870,-90.6093,0.0,17.6,37.0,17.9,'11111222,11111222,11111222' 
LUMCON,ioos:station:LUMCON:102:1,2019-11-12T15:30:00Z,29.1870,-90.6093,0.0,16.4,33.0,17.7,'11111222,11111222,11111222' 
LUMCON,ioos:station:LUMCON:102:1,2019-11-12T15:45:00Z,29.1870,-90.6093,0.0,15.2,29.0,16.1,'11111222,11111222,11111222' 
LUMCON,ioos:station:LUMCON:102:1,2019-11-12T16:00:00Z,29.1870,-90.6093,0.0,12.6,42.0,13.2,'11111222,11111222,11111222' 
LUMCON,ioos:station:LUMCON:102:1,2019-11-12T16:15:00Z,29.1870,-90.6093,0.0,12.6,19.0,13.5,'11111222,11111222,11111222' 
LUMCON,ioos:station:LUMCON:102:1,2019-11-12T16:30:00Z,29.1870,-90.6093,0.0,13.9,37.0,14.3,'11111222,11111222,11111222' 
LUMCON,ioos:station:LUMCON:102:1,2019-11-12T16:45:00Z,29.1870,-90.6093,0.0,12.5,38.0,13.2,'11111222,11111222,11111222' 
LUMCON,ioos:station:LUMCON:102:1,2019-11-12T17:00:00Z,29.1870,-90.6093,0.0,16.1,20.0,16.7,'11111222,11111222,11111222' 
LUMCON,ioos:station:LUMCON:102:1,2019-11-12T17:15:00Z,29.1870,-90.6093,0.0,13.2,36.0,14.3,'11111222,11111222,11111222' 
LUMCON,ioos:station:LUMCON:102:1,2019-11-12T17:30:00Z,29.1870,-90.6093,0.0,13.9,21.0,14.3,'11111222,11111222,11111222' 
LUMCON,ioos:station:LUMCON:102:1,2019-11-12T17:45:00Z,29.1870,-90.6093,0.0,11.8,35.0,12.2,'11111222,11111222,11111222' 
LUMCON,ioos:station:LUMCON:102:1,2019-11-12T18:00:00Z,29.1870,-90.6093,0.0,13.1,30.0,13.7,'11111222,11111222,11111222' 
LUMCON,ioos:station:LUMCON:102:1,2019-11-12T18:15:00Z,29.1870,-90.6093,0.0,13.5,22.0,13.8,'11111222,11111222,11111222' 
LUMCON,ioos:station:LUMCON:102:1,2019-11-12T18:30:00Z,29.1870,-90.6093,0.0,12.2,24.0,12.6,'11111222,11111222,11111222' 
LUMCON,ioos:station:LUMCON:102:1,2019-11-12T18:45:00Z,29.1870,-90.6093,0.0,14.3,32.0,15.1,'11111222,11111222,11111222' 
LUMCON,ioos:station:LUMCON:102:1,2019-11-12T19:00:00Z,29.1870,-90.6093,0.0,10.6,17.0,11.0,'11111222,11111222,11111222' 
LUMCON,ioos:station:LUMCON:102:1,2019-11-12T19:15:00Z,29.1870,-90.6093,0.0,10.2,26.0,10.7,'11111222,11111222,11111222' 
LUMCON,ioos:station:LUMCON:102:1,2019-11-12T19:30:00Z,29.1870,-90.6093,0.0,11.3,36.0,11.8,'11111222,11111222,11111222' 
LUMCON,ioos:station:LUMCON:102:1,2019-11-12T19:45:00Z,29.1870,-90.6093,0.0,10.9,28.0,11.3,'11111222,11111222,11111222' 
LUMCON,ioos:station:LUMCON:102:1,2019-11-12T20:00:00Z,29.1870,-90.6093,0.0,11.1,23.0,11.3,'11111222,11111222,11111222' 
LUMCON,ioos:station:LUMCON:102:1,2019-11-12T20:15:00Z,29.1870,-90.6093,0.0,8.4,33.0,8.9,'11111222,11111222,11111222' 
LUMCON,ioos:station:LUMCON:102:1,2019-11-12T20:30:00Z,29.1870,-90.6093,0.0,12.3,20.0,12.7,'11111222,11111222,11111222' 
LUMCON,ioos:station:LUMCON:102:1,2019-11-12T20:45:00Z,29.1870,-90.6093,0.0,11.6,28.0,12.2,'11111222,11111222,11111222' 
LUMCON,ioos:station:LUMCON:102:1,2019-11-12T21:00:00Z,29.1870,-90.6093,0.0,11.0,35.0,11.8,'11111222,11111222,11111222' 
LUMCON,ioos:station:LUMCON:102:1,2019-11-12T21:15:00Z,29.1870,-90.6093,0.0,11.1,31.0,11.5,'11111222,11111222,11111222' 
LUMCON,ioos:station:LUMCON:102:1,2019-11-12T21:30:00Z,29.1870,-90.6093,0.0,9.7,29.0,10.1,'11111222,11111222,11111222' 
LUMCON,ioos:station:LUMCON:102:1,2019-11-12T21:45:00Z,29.1870,-90.6093,0.0,12.0,40.0,12.8,'11111222,11111222,11111222' 
LUMCON,ioos:station:LUMCON:102:1,2019-11-12T22:00:00Z,29.1870,-90.6093,0.0,9.6,23.0,10.8,'11111222,11111222,11111222' 
LUMCON,ioos:station:LUMCON:102:1,2019-11-12T22:15:00Z,29.1870,-90.6093,0.0,9.2,38.0,9.5,'11111222,11111222,11111222' 
LUMCON,ioos:station:LUMCON:102:1,2019-11-12T22:30:00Z,29.1870,-90.6093,0.0,11.5,42.0,11.9,'11111222,11111222,11111222' 
LUMCON,ioos:station:LUMCON:102:1,2019-11-12T22:45:00Z,29.1870,-90.6093,0.0,12.8,36.0,13.8,'11111222,11111222,11111222' 
LUMCON,ioos:station:LUMCON:102:1,2019-11-12T23:00:00Z,29.1870,-90.6093,0.0,12.8,41.0,13.7,'11111222,11111222,11111222' 
LUMCON,ioos:station:LUMCON:102:1,2019-11-12T23:15:00Z,29.1870,-90.6093,0.0,11.4,28.0,11.9,'11111222,11111222,11111222' 
LUMCON,ioos:station:LUMCON:102:1,2019-11-12T23:30:00Z,29.1870,-90.6093,0.0,10.5,25.0,11.2,'11111222,11111222,11111222' 
LUMCON,ioos:station:LUMCON:102:1,2019-11-12T23:45:00Z,29.1870,-90.6093,0.0,11.1,35.0,11.5,'11111222,11111222,11111222' 
LUMCON,ioos:station:LUMCON:102:1,2019-11-13T00:00:00Z,29.1870,-90.6093,0.0,12.2,29.0,12.7,'11111222,11111222,11111222' 
LUMCON,ioos:station:LUMCON:102:1,2019-11-13T00:15:00Z,29.1870,-90.6093,0.0,12.0,27.0,12.4,'11111222,11111222,11111222' 
LUMCON,ioos:station:LUMCON:102:1,2019-11-13T00:30:00Z,29.1870,-90.6093,0.0,11.0,34.0,12.3,'11111222,11111222,11111222' 
LUMCON,ioos:station:LUMCON:102:1,2019-11-13T00:45:00Z,29.1870,-90.6093,0.0,11.6,40.0,12.2,'11111222,11111222,11111222' 
LUMCON,ioos:station:LUMCON:102:1,2019-11-13T01:00:00Z,29.1870,-90.6093,0.0,14.7,42.0,15.7,'11111222,11111222,11111222' 
LUMCON,ioos:station:LUMCON:102:1,2019-11-13T01:15:00Z,29.1870,-90.6093,0.0,11.1,32.0,12.0,'11111222,11111222,11111222' 
LUMCON,ioos:station:LUMCON:102:1,2019-11-13T01:30:00Z,29.1870,-90.6093,0.0,10.9,44.0,11.8,'11111222,11111222,11111222' 
LUMCON,ioos:station:LUMCON:102:1,2019-11-13T01:45:00Z,29.1870,-90.6093,0.0,13.3,29.0,14.3,'11111222,11111222,11111222' 
LUMCON,ioos:station:LUMCON:102:1,2019-11-13T02:00:00Z,29.1870,-90.6093,0.0,12.8,39.0,13.4,'11111222,11111222,11111222' 
LUMCON,ioos:station:LUMCON:102:1,2019-11-13T02:15:00Z,29.1870,-90.6093,0.0,14.0,23.0,14.3,'11111222,11111222,11111222' 
LUMCON,ioos:station:LUMCON:102:1,2019-11-13T02:30:00Z,29.1870,-90.6093,0.0,13.5,46.0,14.1,'11111222,11111222,11111222' 
LUMCON,ioos:station:LUMCON:102:1,2019-11-13T02:45:00Z,29.1870,-90.6093,0.0,14.1,46.0,14.9,'11111222,11111222,11111222' 
LUMCON,ioos:station:LUMCON:102:1,2019-11-13T03:00:00Z,29.1870,-90.6093,0.0,13.1,57.0,15.0,'11111222,11111222,11111222' 
LUMCON,ioos:station:LUMCON:102:1,2019-11-13T03:15:00Z,29.1870,-90.6093,0.0,11.8,39.0,13.4,'11111222,11111222,11111222' 
LUMCON,ioos:station:LUMCON:102:1,2019-11-13T03:30:00Z,29.1870,-90.6093,0.0,12.9,38.0,13.1,'11111222,11111222,11111222' 
LUMCON,ioos:station:LUMCON:102:1,2019-11-13T03:45:00Z,29.1870,-90.6093,0.0,11.8,35.0,12.9,'11111222,11111222,11111222' 
LUMCON,ioos:station:LUMCON:102:1,2019-11-13T04:00:00Z,29.1870,-90.6093,0.0,10.4,43.0,11.0,'11111222,11111222,11111222' 
LUMCON,ioos:station:LUMCON:102:1,2019-11-13T04:15:00Z,29.1870,-90.6093,0.0,13.1,50.0,13.7,'11111222,11111222,11111222' 
LUMCON,ioos:station:LUMCON:102:1,2019-11-13T04:30:00Z,29.1870,-90.6093,0.0,14.0,46.0,14.4,'11111222,11111222,11111222' 
LUMCON,ioos:station:LUMCON:102:1,2019-11-13T04:45:00Z,29.1870,-90.6093,0.0,9.1,51.0,9.8,'11111222,11111222,11111222' 
LUMCON,ioos:station:LUMCON:102:1,2019-11-13T05:00:00Z,29.1870,-90.6093,0.0,12.5,45.0,13.2,'11111222,11111222,11111222' 
LUMCON,ioos:station:LUMCON:102:1,2019-11-13T05:15:00Z,29.1870,-90.6093,0.0,11.9,44.0,12.3,'11111222,11111222,11111222' 
LUMCON,ioos:station:LUMCON:102:1,2019-11-13T05:30:00Z,29.1870,-90.6093,0.0,11.6,37.0,12.8,'11111222,11111222,11111222' 
LUMCON,ioos:station:LUMCON:102:1,2019-11-13T05:45:00Z,29.1870,-90.6093,0.0,12.2,42.0,12.4,'11111222,11111222,11111222' 
LUMCON,ioos:station:LUMCON:102:1,2019-11-13T06:00:00Z,29.1870,-90.6093,0.0,10.1,46.0,10.7,'11111222,11111222,11111222' 
LUMCON,ioos:station:LUMCON:102:1,2019-11-13T06:15:00Z,29.1870,-90.6093,0.0,11.4,52.0,11.7,'11111222,11111222,11111222' 
LUMCON,ioos:station:LUMCON:102:1,2019-11-13T06:30:00Z,29.1870,-90.6093,0.0,12.8,34.0,12.9,'11111222,11111222,11111222' 
LUMCON,ioos:station:LUMCON:102:1,2019-11-13T06:45:00Z,29.1870,-90.6093,0.0,12.0,47.0,12.2,'11111222,11111222,11111222' 
LUMCON,ioos:station:LUMCON:102:1,2019-11-13T07:00:00Z,29.1870,-90.6093,0.0,11.5,47.0,12.2,'11111222,11111222,11111222' 
LUMCON,ioos:station:LUMCON:102:1,2019-11-13T07:15:00Z,29.1870,-90.6093,0.0,11.5,38.0,11.9,'11111222,11111222,11111222' 
LUMCON,ioos:station:LUMCON:102:1,2019-11-13T07:30:00Z,29.1870,-90.6093,0.0,10.3,39.0,11.0,'11111222,11111222,11111222' 
LUMCON,ioos:station:LUMCON:102:1,2019-11-13T07:45:00Z,29.1870,-90.6093,0.0,11.4,53.0,12.0,'11111222,11111222,11111222' 
LUMCON,ioos:station:LUMCON:102:1,2019-11-13T08:00:00Z,29.1870,-90.6093,0.0,9.6,47.0,10.7,'11111222,11111222,11111222' 
LUMCON,ioos:station:LUMCON:102:1,2019-11-13T08:15:00Z,29.1870,-90.6093,0.0,9.4,36.0,9.6,'11111222,11111222,11111222' 
LUMCON,ioos:station:LUMCON:102:1,2019-11-13T08:30:00Z,29.1870,-90.6093,0.0,10.1,40.0,10.6,'11111222,11111222,11111222' 
LUMCON,ioos:station:LUMCON:102:1,2019-11-13T08:45:00Z,29.1870,-90.6093,0.0,8.6,40.0,9.4,'11111222,11111222,11111222' 
LUMCON,ioos:station:LUMCON:102:1,2019-11-13T09:00:00Z,29.1870,-90.6093,0.0,8.5,46.0,9.0,'11111222,11111222,11111222' 
LUMCON,ioos:station:LUMCON:102:1,2019-11-13T09:15:00Z,29.1870,-90.6093,0.0,7.7,47.0,8.0,'11111222,11111222,11111222' 
LUMCON,ioos:station:LUMCON:102:1,2019-11-13T09:30:00Z,29.1870,-90.6093,0.0,7.9,42.0,8.3,'11111222,11111222,11111222' 
LUMCON,ioos:station:LUMCON:102:1,2019-11-13T09:45:00Z,29.1870,-90.6093,0.0,7.0,50.0,7.2,'11111222,11111222,11111222' 
LUMCON,ioos:station:LUMCON:102:1,2019-11-13T10:00:00Z,29.1870,-90.6093,0.0,7.1,43.0,7.3,'11111222,11111222,11111222' 
LUMCON,ioos:station:LUMCON:102:1,2019-11-13T10:15:00Z,29.1870,-90.6093,0.0,6.8,46.0,7.1,'11111222,11111222,11111222' 
LUMCON,ioos:station:LUMCON:102:1,2019-11-13T10:30:00Z,29.1870,-90.6093,0.0,5.9,77.0,6.1,'11111222,11111222,11111222' 
LUMCON,ioos:station:LUMCON:102:1,2019-11-13T10:45:00Z,29.1870,-90.6093,0.0,6.3,74.0,6.6,'11111222,11111222,11111222' 
LUMCON,ioos:station:LUMCON:102:1,2019-11-13T11:00:00Z,29.1870,-90.6093,0.0,6.3,60.0,6.5,'11111222,11111222,11111222' 
LUMCON,ioos:station:LUMCON:102:1,2019-11-13T11:15:00Z,29.1870,-90.6093,0.0,6.3,47.0,6.7,'11111222,11111222,11111222' 
LUMCON,ioos:station:LUMCON:102:1,2019-11-13T11:30:00Z,29.1870,-90.6093,0.0,5.0,43.0,5.2,'11111222,11111222,11111222' 
LUMCON,ioos:station:LUMCON:102:1,2019-11-13T11:45:00Z,29.1870,-90.6093,0.0,5.9,52.0,6.0,'11111222,11111222,11111222' 
LUMCON,ioos:station:LUMCON:102:1,2019-11-13T12:00:00Z,29.1870,-90.6093,0.0,4.8,64.0,4.9,'11111222,11111222,11111222' 
LUMCON,ioos:station:LUMCON:102:1,2019-11-13T12:15:00Z,29.1870,-90.6093,0.0,5.6,76.0,5.8,'11111222,11111222,11111222' 
LUMCON,ioos:station:LUMCON:102:1,2019-11-13T12:30:00Z,29.1870,-90.6093,0.0,6.3,45.0,6.5,'11111222,11111222,11111222' 
LUMCON,ioos:station:LUMCON:102:1,2019-11-13T12:45:00Z,29.1870,-90.6093,0.0,5.2,35.0,5.4,'11111222,11111222,11111222' 
LUMCON,ioos:station:LUMCON:102:1,2019-11-13T13:00:00Z,29.1870,-90.6093,0.0,6.1,50.0,6.3,'11111222,11111222,11111222' 
LUMCON,ioos:station:LUMCON:102:1,2019-11-13T13:15:00Z,29.1870,-90.6093,0.0,5.3,40.0,5.7,'11111222,11111222,11111222' 
LUMCON,ioos:station:LUMCON:102:1,2019-11-13T13:30:00Z,29.1870,-90.6093,0.0,5.8,50.0,6.2,'11111222,11111222,11111222' 
LUMCON,ioos:station:LUMCON:102:1,2019-11-13T13:45:00Z,29.1870,-90.6093,0.0,5.8,49.0,6.4,'11111222,11111222,11111222' 
LUMCON,ioos:station:LUMCON:102:1,2019-11-13T14:00:00Z,29.1870,-90.6093,0.0,6.6,52.0,6.8,'11111222,11111222,11111222' 
LUMCON,ioos:station:LUMCON:102:1,2019-11-13T14:15:00Z,29.1870,-90.6093,0.0,7.3,75.0,7.8,'11111222,11111222,11111222' 
LUMCON,ioos:station:LUMCON:102:1,2019-11-13T14:30:00Z,29.1870,-90.6093,0.0,5.3,70.0,5.5,'11111222,11111222,11111222' 
LUMCON,ioos:station:LUMCON:102:1,2019-11-13T14:45:00Z,29.1870,-90.6093,0.0,6.8,67.0,6.9,'11111222,11111222,11111222' 
LUMCON,ioos:station:LUMCON:102:1,2019-11-13T15:00:00Z,29.1870,-90.6093,0.0,6.6,78.0,7.0,'11111222,11111222,11111222' 
LUMCON,ioos:station:LUMCON:102:1,2019-11-13T15:15:00Z,29.1870,-90.6093,0.0,5.1,63.0,5.2,'11111222,11111222,11111222' 
LUMCON,ioos:station:LUMCON:102:1,2019-11-13T15:30:00Z,29.1870,-90.6093,0.0,4.2,78.0,4.9,'11111222,11111222,11111222' 
LUMCON,ioos:station:LUMCON:102:1,2019-11-13T15:45:00Z,29.1870,-90.6093,0.0,4.1,61.0,4.2,'11111222,11111222,11111222' 
LUMCON,ioos:station:LUMCON:102:1,2019-11-13T16:00:00Z,29.1870,-90.6093,0.0,4.6,65.0,5.4,'11111222,11111222,11111222' 
LUMCON,ioos:station:LUMCON:102:1,2019-11-13T16:15:00Z,29.1870,-90.6093,0.0,5.1,120.0,5.3,'11111222,11111222,11111222' 
LUMCON,ioos:station:LUMCON:102:1,2019-11-13T16:30:00Z,29.1870,-90.6093,0.0,6.3,99.0,7.2,'11111222,11111222,11111222' 
LUMCON,ioos:station:LUMCON:102:1,2019-11-13T16:45:00Z,29.1870,-90.6093,0.0,5.5,105.0,5.8,'11111222,11111222,11111222' 